Regional Weather Roundup
Issued by NWS

Home | Current Version | Previous Version | Text Only | Print | Product List | Glossary On
Versions: 1 2 3 4 5 6 7 8 9 10 11 12 13 14 15 16 17 18 19 20 21 22 23 24 25 26 27 28 29 30 31 32 33 34 35 36 37 38 39 40 41 42 43 44 45 46 47 48 49 50
000
ASUS43 KMKX 220000
RWRWI

WISCONSIN REGIONAL WEATHER ROUNDUP
NATIONAL WEATHER SERVICE MILWAUKEE/SULLIVAN WI
600 PM CST TUE FEB 21 2017

NOTE: "FAIR" INDICATES FEW OR NO CLOUDS BELOW 12,000 FEET WITH NO
SIGNIFICANT WEATHER AND/OR OBSTRUCTIONS TO VISIBILITY.

WIZ001-002-006>008-014>016-023>028-220100-
NORTHWEST WISCONSIN

CITY           SKY/WX    TMP DP  RH WIND       PRES   REMARKS
SUPERIOR ARPT  CLOUDY    40  35  83 CALM      29.70S
ASHLAND        CLOUDY    46  32  58 SW5       29.72R
6HR MIN TEMP:  46; 6HR MAX TEMP:  57;

HAYWARD        CLOUDY    46  34  62 S5        29.72S
6HR MIN TEMP:  44; 6HR MAX TEMP:  52;

SIREN          CLOUDY    50  39  67 S5        29.71R
CUMBERLAND     CLOUDY    45  37  76 S6        29.72S
RICE LAKE      CLOUDY    50  38  64 CALM      29.74S
CHETEK         CLOUDY    50  39  66 SE3       29.73F
LADYSMITH      PTCLDY    51  37  59 CALM      29.76S
EAU CLAIRE     NOT AVBL
MENOMONIE      CLOUDY    54  38  54 S8        29.75R
6HR MIN TEMP:  43; 6HR MAX TEMP:  60;

NEW RICHMOND   CLOUDY    55  40  57 S7        29.73R
OSCEOLA        NOT AVBL
$$

WIZ003>005-009-010-017-018-220100-
NORTH CENTRAL WISCONSIN

CITY           SKY/WX    TMP DP  RH WIND       PRES   REMARKS
MANITOWISH WTR CLOUDY    47  29  50 S6        29.73S
ARBOR VITAE    MOCLDY    52  30  43 S7          N/A
WOODRUFF       MOCLDY    52  30  43 S7          N/A
RHINELANDER    PTCLDY    49  32  52 S5        29.77F
6HR MIN TEMP:  49; 6HR MAX TEMP:  56;

EAGLE RIVER    PTCLDY    50  26  39 S3        29.75F
LAND O LAKES   MOCLDY    49  28  44 S5        29.76F
6HR MIN TEMP:  49; 6HR MAX TEMP:  55;

PHILLIPS       PTCLDY    47  37  68 S6        29.75S
6HR MIN TEMP:  44; 6HR MAX TEMP:  53;

TOMAHAWK       PTCLDY    46  35  66 CALM      29.77F
MEDFORD        MOCLDY    46  38  73 S7        29.76F
MERRILL        NOT AVBL
$$

WIZ029-030-035-036-043>047-220100-
CENTRAL WISCONSIN

CITY           SKY/WX    TMP DP  RH WIND       PRES   REMARKS
WAUSAU         PTCLDY    50  34  54 S8        29.77F
6HR MIN TEMP:  45; 6HR MAX TEMP:  54;

MOSINEE        NOT AVBL
MARSHFIELD     CLOUDY    53  34  48 S10       29.78F
6HR MIN TEMP:  47; 6HR MAX TEMP:  57;

STEVENS POINT  MOCLDY    53  32  44 S8        29.81F
WAUPACA        PTCLDY    55  34  45 SE6       29.84S
WAUTOMA        CLOUDY    54  36  50 S6        29.84F
6HR MIN TEMP:  54; 6HR MAX TEMP:  63;

WISC RAPIDS    CLOUDY    55  33  43 S8        29.81F
6HR MIN TEMP:  52; 6HR MAX TEMP:  60;

CAMP DOUGLAS   NOT AVBL
$$

WIZ011>013-019>022-031-037>040-048>050-220100-
NORTHEAST WISCONSIN

CITY           SKY/WX    TMP DP  RH WIND       PRES   REMARKS
ANTIGO         CLOUDY    43  32  65 S5        29.81S
SHAWANO        PTCLDY    52  36  54 S5        29.83F
6HR MIN TEMP:  52; 6HR MAX TEMP:  60;

OCONTO         CLEAR     53  36  52 S3        29.84S
STURGEON BAY   CLEAR     52  37  56 S6        29.85F
6HR MIN TEMP:  52; 6HR MAX TEMP:  58;

GREEN BAY      PTCLDY    53  43  68 S5        29.85S
6HR MIN TEMP:  53; 6HR MAX TEMP:  59;

MANITOWOC      NOT AVBL
APPLETON       MOCLDY    48  37  66 SE7       29.84S
CLINTONVILLE   PTCLDY    50  37  62 S6        29.82F
OSHKOSH        PTCLDY    50  41  71 S6        29.85F
6HR MIN TEMP:  47; 6HR MAX TEMP:  59;

$$

WIZ032>034-041-042-053>061-220100-
SOUTHWEST WISCONSIN

CITY           SKY/WX    TMP DP  RH WIND       PRES   REMARKS
LA CROSSE      CLOUDY    57  36  45 S13       29.79F
6HR MIN TEMP:  52; 6HR MAX TEMP:  62;

SPARTA         PTCLDY    56  33  42 S5        29.82S
6HR MIN TEMP:  52; 6HR MAX TEMP:  63;

VIROQUA        CLOUDY    53  37  53 S9        29.82F
6HR MIN TEMP:  52; 6HR MAX TEMP:  59;

BOSCOBEL       CLOUDY    56  37  49 CALM      29.84F
6HR MIN TEMP:  55; 6HR MAX TEMP:  66;

PRAIRIE DU CHI CLOUDY    56  37  49 E5        29.83F
PLATTEVILLE    CLOUDY    55  41  60 S6        29.87F
$$

WIZ056-057-062-063-064-067-068-220100-
SOUTH CENTRAL WISCONSIN

CITY           SKY/WX    TMP DP  RH WIND       PRES   REMARKS
REEDSBURG      MOCLDY    55  34  44 S5        29.84F
6HR MIN TEMP:  53; 6HR MAX TEMP:  62;

BARABOO/DELLS  MOCLDY    56  33  41 S5        29.85F
LONE ROCK      NOT AVBL
MINERAL POINT  CLOUDY    55  39  54 S5        29.87F
MADISON        CLOUDY    56  37  49 S5        29.86F
6HR MIN TEMP:  51; 6HR MAX TEMP:  62;

MIDDLETON      CLOUDY    57  35  42 S5        29.87S
6HR MIN TEMP:  56; 6HR MAX TEMP:  65;

WATERTOWN      PTCLDY    54  40  59 S3        29.88S
MONROE         CLOUDY    55  37  50 SW6       29.88F
JANESVILLE     MOCLDY    61  32  33 SW3       29.88S
$$

WIZ051-052-058>065-066-070>072-220100-
SOUTHEAST WISCONSIN

CITY           SKY/WX    TMP DP  RH WIND       PRES   REMARKS
MILWAUKEE      PTCLDY    47  44  90 SE6       29.89S FOG
6HR MIN TEMP:  47; 6HR MAX TEMP:  66;

WAUKESHA       CLEAR     55  30  38 SW5       29.90S
MILWAUKEE/TIMM CLEAR     54  43  66 E6        29.89R
RACINE         FOG       45  43  93 SE6       29.91S VSB 1/4
6HR MIN TEMP:  45; 6HR MAX TEMP:  65;

KENOSHA        CLEAR     51  45  79 E5        29.88F
6HR MIN TEMP:  48; 6HR MAX TEMP:  65;

FOND DU LAC    PTCLDY    52  41  66 S6        29.86F
6HR MIN TEMP:  52; 6HR MAX TEMP:  60;

SHEBOYGAN      CLEAR     48  41  76 S5        29.87S
6HR MIN TEMP:  47; 6HR MAX TEMP:  63;

WEST BEND      PTCLDY    52  32  46 CALM      29.87F
JUNEAU         CLOUDY    55  39  55 S6        29.88F
$$

LSZ147-162-220100-
LAKE SUPERIOR

STATION/POSITION TIME  TEMP    WIND        PRES    WAVE
                       AIR SEA DIR/SP/G            HT/PER
                 (UTC) (F)     (DEG/KT/KT) (MB)    (FT/S)
DEVILS ISLAND    2300   39      90/ 11/ 11 1006.5R
PORT WING        2330   38     160/  2/  2 1006.1F
SAXON HARBOR     2340   48      CALM  /  4 1006.1R
$$

LMZ867-665-643>646-220100-
LAKE MICHIGAN

STATION/POSITION TIME  TEMP    WIND        PRES    WAVE
                       AIR SEA DIR/SP/G            HT/PER
                 (UTC) (F)     (DEG/KT/KT) (MB)    (FT/S)
CHAMBERS ISLAND  2340   50     190/  6/ 14 1009.8S
NORTHPORT PIER   2340   44     170/  1/  4 1010.2R
SISTER BAY       2250   56     230/  9/ 10   N/A
ALGOMA LAKESHORE 2155          210/  7/  8   N/A
KEWAUNEE LAKESHO 2330   39     180/ 10/ 11 1010.8R
SHEBOYGAN LAKESH 2300   45     180/ 13/ 13 1011.8F
PORT WASHINGTON  2330   42     170/  4/  4 1013.2S
MILWAUKEE LAKESH 2330   41     160/  4/  7   N/A
KENOSHA   LAKESH 2300   40     180/  9/ 10 1012.2
$$

TC  - TEMPERATURE IN CELSIUS
VSB - VISIBILITY IN STATUTE MILES
WCI - WIND CHILL INDEX
HX  - HEAT INDEX





USA.gov is the U.S. government's official web portal to all federal, state and local government web resources and services.